Regional Weather Roundup
Issued by NWS

Home | Current Version | Previous Version | Graphics & Text | Print | Product List | Glossary On
Versions: 1 2 3 4 5 6 7 8 9 10 11 12 13 14 15 16 17 18 19 20 21 22 23 24 25 26 27 28 29 30 31 32 33 34 35 36 37 38 39 40 41 42 43 44 45 46 47 48 49 50
073
ASUS43 KLMK 171002
RWRKY
KENTUCKY REGIONAL WEATHER ROUNDUP
NATIONAL WEATHER SERVICE LOUISVILLE KY
500 AM EST SUN DEC 17 2017

NOTE "FAIR" INDICATES FEW OR NO CLOUDS BELOW 12,000 FEET
WITH NO SIGNIFICANT WEATHER AND/OR OBSTRUCTIONS TO VISIBILITY.

KYZ001>023-026-027-061>063-070>075-171100-
WESTERN AND SOUTH CENTRAL KENTUCKY

CITY           SKY/WX    TMP DP  RH WIND       PRES   REMARKS
PADUCAH        CLOUDY    45  30  55 SW3       30.15R
HENDERSON      CLOUDY    42  32  67 SE5       30.15F
OWENSBORO      NOT AVBL
HOPKINSVILLE   CLOUDY    42  30  63 SE5       30.14F
BOWLING GREEN  CLOUDY    41  32  70 CALM      30.18F
GLASGOW        NOT AVBL
$$

KYZ024-025-028>034-038-045-046-053-171100-
NORTH CENTRAL KENTUCKY

CITY           SKY/WX    TMP DP  RH WIND       PRES   REMARKS
LOUISVILLE/SDF CLOUDY    41  30  65 SE5       30.17F
LOUISVILLE/LOU CLOUDY    41  32  70 S6        30.18F
FORT KNOX      CLOUDY    39  30  70 S6        30.16F WCI  35
$$

KYZ035>037-039>044-047>052-055>060-089>105-171100-
NORTHEAST KENTUCKY

CITY           SKY/WX    TMP DP  RH WIND       PRES   REMARKS
LEXINGTON      CLOUDY    39  29  67 S8        30.20S WCI  33
COVINGTON      CLOUDY    39  30  70 S8        30.16F WCI  33
FRANKFORT      CLOUDY    39  28  64 S5        30.19R
$$

KYZ054-064>069-076>088-106>120-171100-
SOUTHEAST KENTUCKY

CITY           SKY/WX    TMP DP  RH WIND       PRES   REMARKS
JACKSON        CLOUDY    38  27  64 S3        30.21F
LONDON         CLOUDY    32  27  81 CALM      30.24S
SOMERSET       NOT AVBL
MIDDLESBORO    CLOUDY    30  28  93 CALM      30.26F
MONTICELLO     NOT AVBL
$$





USA.gov is the U.S. government's official web portal to all federal, state and local government web resources and services.